Zurück zum Katalog

FENGYUN 1C DEB

AktivSSO
NORAD 32132·DEBRIS·🇨🇳 China

Gestartet May 10, 1999 von Taiyuan Satellite Launch Center

Loading…

Nächste Überflüge (nächste 24 Stunden)

TLE

AktuellSource: Space-Track

Epoche: Sep 14, 2026, 09:17 UTC

1 32132U 99025CSA 26257.38731724  .00003679  00000-0  85267-3 0  9999
2 32132  98.3567 316.3555 0077240 138.4754 222.2346 14.53837073748002

Verfolge FENGYUN 1C DEB in Echtzeit mit AllMySat

Download on the App Store